2E0RGX-13 Weather Reports


time (UTC)temp
C
wind
direction
speed
KPH
gust
KPH
rain 1hr
cm
rain 24hr
cm
rain mn
cm
humidity
%
barometer
mb
20260507224022 11 49 3.2 6.4 0.00 0.00 0.00 77 1013.6
20260507223518 11 67 6.4 6.4 0.00 0.00 0.00 77 1013.8
20260507223014 11 52 4.8 4.8 0.00 0.00 0.00 77 1013.7
20260507222510 11 85 4.8 4.8 0.00 0.00 0.00 78 1013.6
20260507222006 11 64 4.8 4.8 0.00 0.00 0.00 78 1013.6
20260507221502 11 84 1.6 4.8 0.00 0.00 0.00 78 1013.6
20260507220958 11 54 4.8 4.8 0.00 0.00 0.00 78 1013.6
20260507220454 11 88 3.2 3.2 0.00 0.00 0.00 77 1013.7
20260507215950 11 80 3.2 3.2 0.00 0.00 0.00 77 1013.5
20260507215446 11 88 1.6 3.2 0.00 0.00 0.00 77 1013.7
20260507214942 11 100 1.6 3.2 0.00 0.00 0.00 76 1013.6
20260507214438 12 80 1.6 3.2 0.00 0.00 0.00 76 1013.7
20260507213934 12 57 3.2 4.8 0.00 0.00 0.00 75 1013.7
20260507213430 12 58 1.6 3.2 0.00 0.00 0.00 74 1013.6
20260507212926 12 148 0.0 3.2 0.00 0.00 0.00 74 1013.9
20260507212422 12 142 3.2 4.8 0.00 0.00 0.00 74 1013.7
20260507211918 12 93 3.2 6.4 0.00 0.00 0.00 73 1013.7
20260507211414 12 76 4.8 4.8 0.00 0.00 0.00 73 1013.8
20260507210910 12 133 3.2 11.3 0.00 0.00 0.00 73 1013.7
20260507210406 12 106 8.0 11.3 0.00 0.00 0.00 72 1013.6
20260507205902 12 57 3.2 6.4 0.00 0.00 0.00 72 1013.4
20260507205358 12 94 3.2 11.3 0.00 0.00 0.00 72 1013.6
20260507204854 12 87 1.6 3.2 0.00 0.00 0.00 72 1013.4
20260507204350 12 91 3.2 9.7 0.00 0.00 0.00 71 1013.5
20260507203846 12 88 3.2 9.7 0.00 0.00 0.00 71 1013.4
20260507203342 12 59 3.2 6.4 0.00 0.00 0.00 71 1013.2
20260507202838 12 81 3.2 4.8 0.00 0.00 0.00 70 1013.4
20260507202334 12 133 8.0 11.3 0.00 0.00 0.00 70 1013.2
20260507201829 12 104 3.2 3.2 0.00 0.00 0.00 70 1013.0
20260507201325 12 114 1.6 9.7 0.00 0.00 0.00 69 1013.1
20260507200821 12 121 9.7 12.9 0.00 0.00 0.00 69 1013.1
20260507200317 12 101 6.4 12.9 0.00 0.00 0.00 69 1012.9
20260507195813 12 81 1.6 12.9 0.00 0.00 0.00 69 1013.0
20260507195309 12 74 6.4 9.7 0.00 0.00 0.00 69 1013.0
20260507194806 12 104 6.4 12.9 0.00 0.00 0.00 69 1012.8
20260507194302 12 67 6.4 14.5 0.00 0.00 0.00 70 1012.9
20260507193758 12 119 4.8 11.3 0.00 0.00 0.00 70 1012.9
20260507193254 12 89 1.6 4.8 0.00 0.00 0.00 70 1012.7
20260507192749 12 81 4.8 9.7 0.00 0.00 0.00 71 1012.6
20260507192245 12 57 8.0 12.9 0.00 0.00 0.00 71 1012.4
20260507191741 12 141 3.2 9.7 0.00 0.00 0.00 72 1012.5
20260507191237 12 90 4.8 9.7 0.00 0.00 0.00 73 1012.5
20260507190733 12 45 4.8 6.4 0.00 0.00 0.00 72 1012.7
20260507190229 12 116 3.2 9.7 0.00 0.00 0.00 72 1012.5
20260507185725 12 62 6.4 12.9 0.00 0.00 0.00 72 1012.7
20260507185222 12 62 6.4 9.7 0.00 0.00 0.00 71 1012.4
20260507184717 12 104 3.2 9.7 0.00 0.00 0.00 70 1012.5
20260507184213 12 93 4.8 11.3 0.00 0.00 0.00 69 1012.6
20260507183709 12 64 1.6 4.8 0.00 0.00 0.00 68 1012.4
20260507183205 12 88 4.8 12.9 0.00 0.00 0.00 67 1012.7
20260507182701 12 75 4.8 11.3 0.00 0.00 0.00 67 1012.5
20260507182157 13 62 6.4 9.7 0.00 0.00 0.00 67 1012.7
20260507181653 13 336 3.2 11.3 0.00 0.00 0.00 67 1012.4
20260507181149 13 170 3.2 9.7 0.00 0.00 0.00 67 1012.6
20260507180645 13 74 8.0 9.7 0.00 0.00 0.00 66 1012.4
20260507180141 13 83 6.4 14.5 0.00 0.00 0.00 66 1012.4
20260507175637 13 68 4.8 12.9 0.00 0.00 0.00 66 1012.3
20260507175133 13 318 8.0 11.3 0.00 0.00 0.00 66 1012.3
20260507174629 13 44 6.4 16.1 0.00 0.00 0.00 66 1012.4
20260507174125 13 75 3.2 12.9 0.00 0.00 0.00 66 1012.5
20260507173621 13 121 1.6 12.9 0.00 0.00 0.00 65 1012.3
20260507173117 13 123 6.4 9.7 0.00 0.00 0.00 65 1012.3
20260507172613 13 93 6.4 11.3 0.00 0.00 0.00 65 1012.2
20260507172109 13 158 9.7 16.1 0.00 0.00 0.00 64 1012.3
20260507171605 13 93 4.8 16.1 0.00 0.00 0.00 65 1012.4
20260507171101 13 103 9.7 12.9 0.00 0.00 0.00 64 1012.3
20260507170557 13 119 9.7 11.3 0.00 0.00 0.00 64 1012.1
20260507170053 13 24 11.3 14.5 0.00 0.00 0.00 65 1012.2
20260507165549 13 96 12.9 17.7 0.00 0.00 0.00 64 1012.2
20260507165045 13 79 9.7 14.5 0.00 0.00 0.00 64 1012.3
20260507164541 13 85 9.7 16.1 0.00 0.00 0.00 64 1012.2
20260507164037 13 75 4.8 6.4 0.00 0.00 0.00 64 1012.2
20260507163533 13 84 6.4 12.9 0.00 0.00 0.00 64 1012.3
20260507163029 13 119 3.2 16.1 0.00 0.00 0.00 65 1012.1
20260507162525 13 71 8.0 12.9 0.00 0.00 0.00 65 1012.2
20260507162021 13 62 6.4 12.9 0.00 0.00 0.00 65 1012.3
20260507161517 13 23 3.2 4.8 0.00 0.00 0.00 64 1012.3
20260507161013 13 134 3.2 11.3 0.00 0.00 0.00 64 1012.3
20260507160509 13 95 6.4 16.1 0.00 0.00 0.00 64 1012.2
20260507160005 13 185 6.4 11.3 0.00 0.00 0.00 64 1012.5
20260507155501 13 76 4.8 12.9 0.00 0.00 0.00 63 1012.4
20260507154958 13 78 4.8 9.7 0.00 0.00 0.00 62 1012.3
20260507154454 13 117 9.7 12.9 0.00 0.00 0.00 61 1012.2
20260507153950 13 104 4.8 6.4 0.00 0.00 0.00 60 1012.1
20260507153446 13 90 6.4 11.3 0.00 0.00 0.00 60 1012.3
20260507152942 13 90 6.4 9.7 0.00 0.00 0.00 60 1012.2
20260507152438 13 100 4.8 12.9 0.00 0.00 0.00 60 1012.4
20260507151934 13 87 6.4 14.5 0.00 0.00 0.00 60 1012.5
20260507151430 13 68 3.2 12.9 0.00 0.00 0.00 60 1012.5
20260507150926 13 46 6.4 9.7 0.00 0.00 0.00 60 1012.5
20260507150422 14 98 9.7 17.7 0.00 0.00 0.00 60 1012.2
20260507145918 15 57 14.5 17.7 0.00 0.00 0.00 59 1012.3
20260507145414 15 69 9.7 12.9 0.00 0.00 0.00 57 1012.1
20260507144910 15 36 1.6 6.4 0.00 0.00 0.00 53 1012.2
20260507144406 14 163 0.0 9.7 0.00 0.00 0.00 55 1012.4
20260507143901 15 2 6.4 12.9 0.00 0.00 0.00 54 1012.4
20260507143357 15 134 4.8 11.3 0.00 0.00 0.00 55 1012.5
20260507142853 15 123 12.9 16.1 0.00 0.00 0.00 55 1012.5
20260507142349 15 95 9.7 12.9 0.00 0.00 0.00 55 1012.4
20260507141845 15 134 3.2 11.3 0.00 0.00 0.00 54 1012.3
20260507141341 15 97 3.2 9.7 0.00 0.00 0.00 55 1012.5
20260507140837 15 67 8.0 12.9 0.00 0.00 0.00 54 1012.6
20260507140333 15 88 6.4 14.5 0.00 0.00 0.00 56 1012.6
20260507135829 14 125 4.8 6.4 0.00 0.00 0.00 57 1012.8
20260507135325 13 77 4.8 9.7 0.00 0.00 0.00 58 1012.8
20260507134822 13 113 9.7 14.5 0.00 0.00 0.00 60 1012.6
20260507134317 13 97 6.4 14.5 0.00 0.00 0.00 59 1012.7
20260507133813 13 65 4.8 9.7 0.00 0.00 0.00 59 1012.8
20260507133309 13 143 4.8 12.9 0.00 0.00 0.00 60 1012.6
20260507132805 13 74 3.2 12.9 0.00 0.00 0.00 61 1012.8
20260507132301 13 126 3.2 12.9 0.00 0.00 0.00 60 1012.8
20260507131757 13 179 6.4 9.7 0.00 0.00 0.00 61 1012.7
20260507131253 13 134 11.3 16.1 0.00 0.00 0.00 60 1012.9
20260507130749 13 80 1.6 9.7 0.00 0.00 0.00 60 1012.7
20260507130245 13 138 3.2 4.8 0.00 0.00 0.00 61 1012.8
20260507125741 13 81 4.8 9.7 0.00 0.00 0.00 61 1012.9
20260507125237 13 95 6.4 11.3 0.00 0.00 0.00 61 1013.0
20260507124734 13 119 4.8 9.7 0.00 0.00 0.00 61 1012.9
20260507124230 12 104 3.2 4.8 0.00 0.00 0.00 61 1013.0
20260507123726 12 141 3.2 11.3 0.00 0.00 0.00 62 1012.8
20260507123222 12 110 8.0 9.7 0.00 0.00 0.00 62 1012.9
20260507122718 13 75 3.2 4.8 0.00 0.00 0.00 62 1012.9
20260507122214 13 65 0.0 6.4 0.00 0.00 0.00 62 1013.0
20260507121709 13 73 0.0 4.8 0.00 0.00 0.00 62 1013.0
20260507121205 13 113 8.0 11.3 0.00 0.00 0.00 61 1012.9
20260507120701 12 111 4.8 6.4 0.00 0.00 0.00 61 1013.2
20260507120157 13 112 8.0 11.3 0.00 0.00 0.00 61 1013.1
20260507115653 13 111 6.4 12.9 0.00 0.00 0.00 62 1013.0
20260507115149 13 64 3.2 9.7 0.00 0.00 0.00 63 1013.0
20260507114645 13 60 3.2 11.3 0.00 0.00 0.00 63 1013.2
20260507114141 12 102 3.2 9.7 0.00 0.00 0.00 61 1013.1
20260507113637 13 36 1.6 11.3 0.00 0.00 0.00 63 1013.0
20260507113133 12 90 4.8 9.7 0.00 0.00 0.00 63 1013.1
20260507112629 13 73 6.4 12.9 0.00 0.00 0.00 61 1013.1
20260507112125 13 129 8.0 9.7 0.00 0.00 0.00 62 1013.3
20260507111621 13 47 4.8 6.4 0.00 0.00 0.00 63 1013.2
20260507111117 13 84 3.2 4.8 0.00 0.00 0.00 64 1013.1
20260507110613 12 170 3.2 6.4 0.00 0.00 0.00 64 1013.4
20260507110109 12 83 3.2 4.8 0.00 0.00 0.00 65 1013.2
20260507105605 12 106 1.6 4.8 0.00 0.00 0.00 66 1013.1
20260507105102 12 79 4.8 11.3 0.00 0.00 0.00 66 1013.1
20260507104558 12 91 4.8 6.4 0.00 0.00 0.00 66 1013.3
20260507104054 12 168 3.2 6.4 0.00 0.00 0.00 66 1013.3
20260507103550 12 97 1.6 1.6 0.00 0.00 0.00 66 1013.2
20260507103046 12 70 3.2 9.7 0.00 0.00 0.00 66 1013.3
20260507102542 12 93 4.8 6.4 0.00 0.00 0.00 65 1013.1
20260507102038 12 82 6.4 6.4 0.00 0.00 0.00 65 1013.3
20260507101534 12 150 3.2 6.4 0.00 0.00 0.00 66 1013.4
20260507101030 12 146 1.6 6.4 0.00 0.00 0.00 66 1013.2
20260507100526 12 108 3.2 4.8 0.00 0.00 0.00 67 1013.2
20260507100022 12 100 1.6 3.2 0.00 0.00 0.00 67 1013.2
20260507095518 12 97 1.6 3.2 0.00 0.00 0.00 66 1013.3
20260507095014 12 68 3.2 9.7 0.00 0.00 0.00 66 1013.3
20260507094510 12 41 1.6 4.8 0.00 0.00 0.00 65 1013.3
20260507094006 12 165 1.6 6.4 0.00 0.00 0.00 64 1013.2
20260507093502 12 99 4.8 6.4 0.00 0.00 0.00 65 1013.0
20260507092958 12 120 8.0 9.7 0.00 0.00 0.00 65 1013.3
20260507092454 12 34 3.2 9.7 0.00 0.00 0.00 66 1013.2
20260507091950 13 132 0.0 4.8 0.00 0.00 0.00 66 1013.2
20260507091446 12 251 1.6 4.8 0.00 0.00 0.00 66 1013.1
20260507090942 13 79 4.8 11.3 0.00 0.00 0.00 65 1013.4
20260507090437 12 78 4.8 6.4 0.00 0.00 0.00 68 1013.4
20260507085933 13 139 4.8 9.7 0.00 0.00 0.00 67 1013.3
20260507085429 12 69 6.4 9.7 0.00 0.00 0.00 68 1013.2
20260507084926 12 63 9.7 9.7 0.00 0.00 0.00 68 1013.3
20260507084422 12 173 1.6 6.4 0.00 0.00 0.00 70 1013.3
20260507083918 12 72 1.6 6.4 0.00 0.00 0.00 70 1013.0
20260507083414 11 92 4.8 4.8 0.00 0.00 0.00 71 1013.1
20260507082910 11 122 6.4 12.9 0.00 0.00 0.00 72 1013.3
20260507082406 11 73 0.0 4.8 0.00 0.00 0.00 73 1013.2
20260507081902 11 55 4.8 6.4 0.00 0.00 0.00 73 1013.3
20260507081358 11 80 0.0 9.7 0.00 0.00 0.00 75 1013.3
20260507080854 11 114 3.2 6.4 0.00 0.00 0.00 74 1013.3
20260507080349 11 128 3.2 4.8 0.00 0.00 0.00 75 1013.3
20260507075845 11 81 1.6 4.8 0.00 0.00 0.00 75 1013.4
20260507075341 11 143 4.8 6.4 0.00 0.00 0.00 75 1013.2
20260507074838 11 153 3.2 12.9 0.00 0.00 0.00 75 1013.2
20260507074334 11 88 1.6 4.8 0.00 0.00 0.00 74 1013.0
20260507073830 11 53 4.8 6.4 0.00 0.00 0.00 74 1013.2
20260507073326 11 124 4.8 6.4 0.00 0.00 0.00 74 1013.0
20260507072822 11 94 1.6 1.6 0.00 0.00 0.00 75 1013.2
20260507072318 10 111 1.6 6.4 0.00 0.00 0.00 76 1013.2
20260507071814 10 61 4.8 6.4 0.00 0.00 0.00 76 1013.2
20260507071310 10 65 3.2 4.8 0.00 0.00 0.00 75 1013.1
20260507070805 10 115 3.2 4.8 0.00 0.00 0.00 76 1012.9
20260507070301 10 7 3.2 4.8 0.00 0.00 0.00 77 1013.1
20260507065757 10 44 1.6 4.8 0.00 0.00 0.00 78 1013.0
20260507065253 10 20 3.2 6.4 0.00 0.00 0.00 78 1013.2
20260507064750 9 46 1.6 4.8 0.00 0.00 0.00 79 1013.2
20260507064246 10 73 3.2 3.2 0.00 0.00 0.00 80 1013.1
20260507063742 9 38 3.2 3.2 0.00 0.00 0.00 81 1013.2
20260507063238 8 16 3.2 3.2 0.00 0.00 0.00 82 1013.1
20260507062733 8 23 4.8 4.8 0.00 0.00 0.00 82 1012.8
20260507062229 8 43 1.6 3.2 0.00 0.00 0.00 82 1013.0
20260507061725 8 78 1.6 3.2 0.00 0.00 0.00 82 1012.9
20260507061221 8 15 3.2 6.4 0.00 0.00 0.00 82 1013.0
20260507060717 8 49 3.2 3.2 0.00 0.00 0.00 82 1012.9
20260507060213 8 54 1.6 3.2 0.00 0.00 0.00 82 1012.7
20260507055709 8 31 3.2 4.8 0.00 0.00 0.00 82 1012.9
20260507055206 8 298 1.6 1.6 0.00 0.00 0.00 82 1012.8
20260507054701 8 47 3.2 3.2 0.00 0.00 0.00 82 1012.7
20260507054157 8 10 1.6 3.2 0.00 0.00 0.00 82 1012.6
20260507053653 8 53 1.6 3.2 0.00 0.00 0.00 82 1012.7
20260507053149 8 34 0.0 3.2 0.00 0.00 0.00 82 1012.5
20260507052645 8 32 1.6 3.2 0.00 0.00 0.00 82 1012.7
20260507052141 8 52 1.6 3.2 0.00 0.00 0.00 82 1012.5
20260507051637 8 35 4.8 4.8 0.00 0.00 0.00 81 1012.5
20260507051133 8 28 3.2 3.2 0.00 0.00 0.00 81 1012.5
20260507050629 8 39 3.2 4.8 0.00 0.00 0.00 81 1012.4
20260507050125 8 57 3.2 3.2 0.00 0.00 0.00 81 1012.6
20260507045621 8 35 3.2 4.8 0.00 0.00 0.00 81 1012.6
20260507045117 8 34 1.6 3.2 0.00 0.00 0.00 81 1012.3
20260507044613 8 62 1.6 4.8 0.00 0.00 0.00 81 1012.1
20260507044109 8 40 1.6 3.2 0.00 0.00 0.00 80 1012.3
20260507043605 8 54 3.2 3.2 0.00 0.00 0.00 80 1012.5
20260507043101 8 45 0.0 3.2 0.00 0.00 0.00 80 1012.4
20260507042557 8 56 1.6 1.6 0.00 0.00 0.00 80 1012.4
20260507042053 8 48 3.2 3.2 0.00 0.00 0.00 80 1012.4
20260507041549 8 48 1.6 3.2 0.00 0.00 0.00 80 1012.2
20260507041045 8 68 6.4 6.4 0.00 0.00 0.00 80 1012.5
20260507040541 8 77 1.6 6.4 0.00 0.00 0.00 80 1012.3
20260507040037 8 32 6.4 9.7 0.00 0.00 0.00 81 1012.4
20260507035533 8 62 6.4 9.7 0.00 0.00 0.00 81 1012.4
20260507035030 8 60 3.2 3.2 0.00 0.00 0.00 81 1012.4
20260507034526 8 34 4.8 6.4 0.00 0.00 0.00 82 1012.4
20260507034022 8 50 3.2 4.8 0.00 0.00 0.00 82 1012.2
20260507033518 8 3 3.2 4.8 0.00 0.00 0.00 82 1012.3
20260507033014 8 36 0.0 3.2 0.00 0.00 0.00 83 1012.3
20260507032510 8 16 1.6 6.4 0.00 0.00 0.00 83 1012.1
20260507032006 8 27 3.2 6.4 0.00 0.00 0.00 83 1012.4
20260507031502 8 38 6.4 9.7 0.00 0.00 0.00 84 1012.3
20260507030958 8 19 3.2 3.2 0.00 0.00 0.00 84 1012.1
20260507030454 8 57 0.0 3.2 0.00 0.00 0.00 84 1012.2
20260507025950 8 60 6.4 6.4 0.00 0.00 0.00 84 1012.3
20260507025446 9 62 0.0 3.2 0.00 0.00 0.00 84 1012.4
20260507024942 9 12 4.8 4.8 0.00 0.00 0.00 84 1012.1
20260507024437 9 35 1.6 3.2 0.00 0.00 0.00 84 1012.2
20260507023933 8 58 1.6 3.2 0.00 0.00 0.00 84 1011.9
20260507023429 8 68 1.6 3.2 0.00 0.00 0.00 84 1012.4
20260507022925 8 350 3.2 3.2 0.00 0.00 0.00 84 1012.2
20260507022422 8 336 3.2 4.8 0.00 0.00 0.00 84 1012.2
20260507021917 8 295 0.0 3.2 0.00 0.00 0.00 84 1011.9
20260507021413 8 343 1.6 4.8 0.00 0.00 0.00 85 1012.1
20260507020909 8 310 1.6 1.6 0.00 0.00 0.00 85 1012.0
20260507020405 8 319 0.0 1.6 0.00 0.00 0.00 85 1011.8
20260507015901 8 46 1.6 1.6 0.00 0.00 0.00 84 1011.9
20260507015357 8 64 0.0 0.0 0.00 0.00 0.00 84 1011.9
20260507014853 8 38 1.6 1.6 0.00 0.00 0.00 84 1011.9
20260507014349 8 348 1.6 3.2 0.00 0.00 0.00 84 1012.0
20260507013845 8 260 0.0 1.6 0.00 0.00 0.00 84 1012.0
20260507013341 8 0 0.0 1.6 0.00 0.00 0.00 84 1011.9
20260507012837 8 172 0.0 1.6 0.00 0.00 0.00 84 1012.0
20260507012333 8 274 0.0 1.6 0.00 0.00 0.00 84 1011.9
20260507011829 8 283 1.6 3.2 0.00 0.00 0.00 84 1011.8
20260507011325 8 290 0.0 1.6 0.00 0.00 0.00 84 1012.0
20260507010821 8 295 1.6 3.2 0.00 0.00 0.00 84 1011.9
20260507010317 8 279 0.0 3.2 0.00 0.00 0.00 84 1011.9
20260507005813 8 247 0.0 1.6 0.00 0.00 0.00 84 1012.0
20260507005309 8 55 0.0 1.6 0.00 0.00 0.00 84 1012.0
20260507004805 9 17 3.2 4.8 0.00 0.00 0.00 83 1011.9
20260507004301 9 268 0.0 1.6 0.00 0.00 0.00 83 1012.0
20260507003757 8 335 1.6 3.2 0.00 0.00 0.00 83 1012.2
20260507003253 8 303 1.6 3.2 0.00 0.00 0.00 83 1012.1
20260507002749 8 318 0.0 3.2 0.00 0.00 0.00 83 1011.9
20260507002245 9 356 0.0 1.6 0.00 0.00 0.00 83 1012.0
20260507001741 9 40 0.0 3.2 0.00 0.00 0.00 83 1012.1
20260507001237 9 282 1.6 3.2 0.00 0.00 0.00 83 1011.9
20260507000733 8 276 1.6 3.2 0.00 0.00 0.00 83 1012.0
20260507000229 9 277 1.6 1.6 0.00 0.00 0.00 83 1012.1
20260506235725 9 86 0.0 3.2 0.00 0.00 0.00 83 1012.0
20260506235221 9 292 0.0 1.6 0.00 0.00 0.00 83 1011.8
20260506234718 9 342 0.0 1.6 0.00 0.00 0.00 83 1011.9
20260506234214 9 326 0.0 3.2 0.00 0.00 0.00 82 1012.0
20260506233710 9 345 0.0 1.6 0.00 0.00 0.00 82 1011.8
20260506233206 9 274 0.0 1.6 0.00 0.00 0.00 82 1012.0
20260506232702 9 293 0.0 1.6 0.00 0.00 0.00 82 1011.8
20260506232158 9 277 0.0 1.6 0.00 0.00 0.00 82 1011.9
20260506231654 9 271 0.0 1.6 0.00 0.00 0.00 82 1011.7
20260506231150 9 318 1.6 3.2 0.00 0.00 0.00 82 1011.8
20260506230646 9 5 3.2 3.2 0.00 0.00 0.00 82 1011.8
20260506230142 9 338 1.6 3.2 0.00 0.00 0.00 81 1011.9
20260506225638 9 31 3.2 3.2 0.00 0.00 0.00 81 1011.9
20260506225133 9 355 0.0 3.2 0.00 0.00 0.00 81 1012.0
20260506224629 9 270 0.0 1.6 0.00 0.00 0.00 80 1012.0